CZ-6A DEB, 56586

Orbit data source: Space-Track

CZ-6A DEB, 56586 is space debris in SSO originally from a launch on Fri, 11 Nov 2022 UTC launched from the Taiyaun Space Center, China (TSC). Debris objects in space refer to the collection of defunct objects orbiting the Earth. Examples of debris include non-operational satellites, rocket bodies, and fragments generated from explosions, collisions, or faulty payload assembly.

Loading next visibility...
Identifier
56586, 2022-151ADJ
Orbit
SSO
Country
Flag of CNCN / PRC
Related business
Manufacturer
SAST
Mission
Spacecraft
Bus & Motor
Unknown
Mass
Unknown
Launch date (UTC)
2022-11-11 (4 years ago)
Launch vehicle
Unknown
Launch site
Taiyaun Space Center, China (TSC)
Object type
Payload
Rocket body
Debris
Shape & HBR
Unknown shape, 0.1 m
Radar Cross Section
Small (<0.1 m²)

Expand to show TLE details & history
Last TLE update: 2 days ago

TLE from 2 days ago
0 CZ-6A DEB
1 56586U 22151ADJ 26171.14608195  .00017263  00000-0  21108-2 0  9995
2 56586  98.6383 241.7842 0047924 267.5475  92.0249 14.82493873179203
Epoch: 2026-06-20T03:30Z
TLE epoch observation values (Epoch: 2026-06-20T03:30:21.480Z)
Latitude
-0.00001°
Longitude
-79.1702°
Altitude
625.811 km
Speed
7.545 km/s
True Right ascension
16h 07m 08s
True Declination
0° 00' 00"
Sunlit
Object was in full shadow at epoch
Visualization orbit readout
Latitude
Unknown
Longitude
Unknown
Altitude
Unknown
Speed
Unknown
Apparent Right ascension
Unknown
Apparent Declination
Unknown
Sunlit
N/A
Visualization observer readout
Local Sidereal Time
23:19:26
Azimuth
Unknown
Elevation
Unknown
Doppler factor
Unknown
Orbital elements
Apogee altitude
652.066 km
Perigee altitude
585.004 km
Semi-major axis
6,996.672 km
Eccentricity
0.00479
Inclination
98.6383°
RAAN
241.7842°
Arg. of periapsis
267.5475°
True anomaly
92.5736°
Mean anomaly
92.0249°
Eccentric anomaly
92.29926°
Mean motion
3.70856 °/min
Orbital period
97.07 mins
BSTAR
0.0021108
Loading maneuver chart data...
Computing Atmospheric mass density...
Loading historical data...
Loading historical data...
Loading historical data...
Loading historical data...
Loading historical data...
Loading historical data...
Loading historical data...

Documentation

Showing up to 5 results
|